QPF
0.03 0.03 0.03 0.03 0.03 0.03 0.03 0.03 0.03 0.04 0.04 0.05 0.06 0.06 0.07 0.10 0.17 0.14 0.08 0.08 0.07 0.07 0.08 0.06 0.04 0.04 0.04 0.05 0.04 0.03 0.02 0.01 0.01 0.01 0.02 0.02 0.02 0.01 0.01 0.02 0.03 0.02 0.01
0.02 0.02 0.02 0.02 0.02 0.04 0.03 0.03 0.03 0.04 0.04 0.04 0.04 0.05 0.05 0.06 0.09 0.09 0.06 0.06 0.07 0.07 0.08 0.10 0.09 0.07 0.06 0.06 0.05 0.05 0.04 0.02 0.02 0.02 0.01 0.01 0.02 0.02 0.01 0.02 0.02 0.02 0.01
0.03 0.03 0.03 0.02 0.03 0.04 0.03 0.03 0.03 0.02 0.02 0.02 0.02 0.02 0.02 0.03 0.05 0.06 0.06 0.06 0.05 0.07 0.09 0.10 0.11 0.09 0.07 0.07 0.06 0.05 0.04 0.03 0.03 0.03 0.03 0.02 0.01 0.01 0.01 0.02 0.02 0.01 0.01
0.02 0.02 0.02 0.03 0.03 0.06 0.03 0.03 0.02 0.02 0.02 0.02 0.02 0.02 0.02 0.03 0.03 0.04 0.04 0.04 0.04 0.05 0.08 0.10 0.10 0.09 0.10 0.08 0.08 0.07 0.05 0.04 0.02 0.03 0.03 0.03 0.02 0.02 0.02 0.01 0.02 0.01 0.01
0.01 0.01 0.01 0.02 0.02 0.05 0.04 0.02 0.02 0.02 0.01 0.02 0.01 0.02 0.03 0.03 0.02 0.02 0.02 0.03 0.04 0.05 0.06 0.07 0.08 0.08 0.08 0.11 0.11 0.11 0.09 0.07 0.05 0.03 0.03 0.03 0.03 0.03 0.02 0.02 0.01 0.01 0.00
0.01 0.01 0.01 0.01 0.01 0.03 0.04 0.03 0.03 0.02 0.01 0.02 0.02 0.02 0.03 0.02 0.02 0.01 0.02 0.02 0.03 0.05 0.08 0.08 0.08 0.06 0.08 0.09 0.10 0.12 0.13 0.14 0.12 0.10 0.07 0.05 0.04 0.04 0.03 0.03 0.02 0.01 0.00
0.01 0.01 0.00 0.01 0.01 0.01 0.02 0.02 0.01 0.01 0.01 0.01 0.02 0.02 0.01 0.01 0.01 0.01 0.01 0.02 0.03 0.06 0.08 0.09 0.08 0.07 0.06 0.08 0.07 0.10 0.12 0.15 0.15 0.12 0.11 0.09 0.08 0.06 0.05 0.04 0.03 0.02 0.01
0.00 0.00 0.00 0.00 0.00 0.00 0.01 0.01 0.01 0.00 0.00 0.01 0.01 0.01 0.01 0.01 0.01 0.01 0.02 0.01 0.02 0.03 0.05 0.06 0.06 0.07 0.06 0.06 0.06 0.09 0.12 0.14 0.16 0.15 0.14 0.12 0.10 0.08 0.07 0.06 0.05 0.03 0.02
0.00 0.00 0.00 0.00 0.01 0.01 0.01 0.01 0.01 0.01 0.01 0.01 0.00 0.00 0.00 0.00 0.01 0.01 0.02 0.01 0.01 0.01 0.01 0.03 0.04 0.04 0.05 0.05 0.05 0.07 0.09 0.11 0.15 0.19 0.18 0.16 0.13 0.10 0.09 0.08 0.08 0.06 0.04
0.00 0.00 0.00 0.00 0.01 0.01 0.01 0.01 0.00 0.00 0.01 0.00 0.00 0.00 0.00 0.00 0.00 0.00 0.01 0.01 0.04 0.02 0.01 0.01 0.01 0.02 0.04 0.05 0.05 0.06 0.06 0.06 0.09 0.13 0.18 0.20 0.16 0.12 0.10 0.10 0.11 0.10 0.08
0.00 0.00 0.00 0.00 0.00 0.00 0.00 0.00 0.00 0.00 0.00 0.00 0.00 0.00 0.00 0.00 0.00 0.00 0.00 0.00 0.00 0.01 0.01 0.01 0.00 0.01 0.01 0.03 0.04 0.05 0.06 0.06 0.07 0.09 0.13 0.17 0.18 0.16 0.14 0.13 0.13 0.14 0.12
0.00 0.00 0.00 0.00 0.00 0.00 0.00 0.00 0.00 0.00 0.00 0.00 0.00 0.00 0.00 0.00 0.00 0.00 0.00 0.00 0.00 0.00 0.00 0.00 0.00 0.00 0.01 0.02 0.02 0.03 0.03 0.03 0.04 0.05 0.07 0.10 0.13 0.14 0.13 0.13 0.15 0.16 0.15
0.00 0.00 0.00 0.00 0.00 0.00 0.00 0.00 0.00 0.00 0.00 0.00 0.00 0.00 0.00 0.00 0.00 0.00 0.00 0.00 0.00 0.00 0.00 0.00 0.00 0.00 0.00 0.00 0.00 0.00 0.00 0.00 0.01 0.02 0.03 0.04 0.06 0.08 0.11 0.12 0.13 0.16 0.17
0.00 0.00 0.00 0.00 0.00 0.00 0.00 0.00 0.00 0.00 0.00 0.00 0.00 0.00 0.00 0.00 0.00 0.00 0.00 0.00 0.00 0.00 0.00 0.00 0.00 0.00 0.00 0.00 0.00 0.00 0.00 0.00 0.00 0.01 0.01 0.01 0.02 0.03 0.05 0.06 0.09 0.10 0.13
0.00 0.00 0.00 0.00 0.00 0.00 0.00 0.00 0.00 0.00 0.00 0.00 0.00 0.00 0.00 0.00 0.00 0.00 0.00 0.00 0.00 0.00 0.00 0.00 0.00 0.00 0.00 0.00 0.00 0.00 0.00 0.00 0.00 0.00 0.00 0.01 0.01 0.01 0.02 0.03 0.03 0.04 0.06
0.00 0.00 0.00 0.00 0.00 0.00 0.00 0.00 0.00 0.00 0.00 0.00 0.00 0.00 0.00 0.00 0.00 0.00 0.00 0.00 0.00 0.00 0.00 0.00 0.00 0.00 0.00 0.00 0.00 0.00 0.00 0.00 0.00 0.00 0.00 0.00 0.00 0.00 0.00 0.01 0.02 0.03 0.03
0.00 0.00 0.00 0.00 0.00 0.00 0.00 0.00 0.00 0.00 0.00 0.00 0.00 0.00 0.00 0.00 0.00 0.00 0.00 0.00 0.00 0.00 0.00 0.00 0.00 0.00 0.00 0.00 0.00 0.00 0.00 0.00 0.00 0.00 0.00 0.00 0.00 0.00 0.00 0.00 0.01 0.01 0.02
0.00 0.00 0.00 0.00 0.00 0.00 0.00 0.00 0.00 0.00 0.00 0.00 0.00 0.00 0.00 0.00 0.00 0.00 0.00 0.00 0.00 0.00 0.00 0.00 0.00 0.00 0.00 0.00 0.00 0.00 0.00 0.00 0.00 0.00 0.00 0.00 0.00 0.00 0.00 0.01 0.01 0.01 0.01
0.00 0.00 0.00 0.00 0.00 0.00 0.00 0.00 0.00 0.00 0.00 0.00 0.00 0.00 0.00 0.00 0.00 0.00 0.00 0.00 0.00 0.00 0.00 0.00 0.00 0.00 0.00 0.00 0.00 0.00 0.00 0.00 0.00 0.00 0.00 0.00 0.00 0.00 0.00 0.00 0.01 0.01 0.01
0.00 0.00 0.00 0.00 0.00 0.00 0.00 0.00 0.00 0.00 0.00 0.00 0.00 0.00 0.00 0.00 0.00 0.00 0.00 0.00 0.00 0.00 0.00 0.00 0.00 0.00 0.00 0.00 0.00 0.00 0.00 0.00 0.00 0.00 0.00 0.00 0.00 0.00 0.00 0.00 0.00 0.01 0.01
0.00 0.00 0.00 0.00 0.00 0.00 0.00 0.00 0.00 0.00 0.00 0.00 0.00 0.00 0.00 0.00 0.00 0.00 0.00 0.00 0.00 0.00 0.00 0.00 0.00 0.00 0.00 0.00 0.00 0.00 0.00 0.00 0.00 0.00 0.00 0.00 0.00 0.00 0.00 0.00 0.00 0.00 0.00
0.00 0.00 0.00 0.00 0.00 0.00 0.00 0.00 0.00 0.00 0.00 0.00 0.00 0.00 0.00 0.00 0.00 0.00 0.00 0.00 0.00 0.00 0.00 0.00 0.00 0.00 0.00 0.00 0.00 0.00 0.00 0.00 0.00 0.00 0.00 0.00 0.00 0.00 0.00 0.00 0.00 0.00 0.00
0.00 0.00 0.00 0.00 0.00 0.00 0.00 0.00 0.00 0.00 0.00 0.00 0.00 0.00 0.00 0.00 0.00 0.00 0.00 0.00 0.00 0.00 0.00 0.00 0.00 0.00 0.00 0.00 0.00 0.00 0.00 0.00 0.00 0.00 0.00 0.00 0.00 0.00 0.00 0.00 0.00 0.00 0.00
0.00 0.00 0.00 0.00 0.00 0.00 0.00 0.00 0.00 0.00 0.00 0.00 0.00 0.00 0.00 0.00 0.00 0.00 0.00 0.00 0.00 0.00 0.00 0.00 0.00 0.00 0.00 0.00 0.00 0.00 0.00 0.00 0.00 0.00 0.00 0.00 0.00 0.00 0.00 0.00 0.00 0.00 0.00
0.00 0.00 0.00 0.00 0.00 0.00 0.00 0.00 0.00 0.00 0.00 0.00 0.00 0.00 0.00 0.00 0.00 0.00 0.00 0.00 0.00 0.00 0.00 0.00 0.00 0.00 0.00 0.00 0.00 0.00 0.00 0.00 0.00 0.00 0.00 0.00 0.00 0.00 0.00 0.00 0.00 0.00 0.00
0.00 0.00 0.00 0.00 0.00 0.00 0.00 0.00 0.00 0.00 0.00 0.00 0.00 0.00 0.00 0.00 0.00 0.00 0.00 0.00 0.00 0.00 0.00 0.00 0.00 0.00 0.00 0.00 0.00 0.00 0.00 0.01 0.00 0.00 0.00 0.00 0.00 0.00 0.00 0.00 0.00 0.00 0.00
MSLP
1014.69 1014.97 1015.17 1015.33 1015.50 1015.71 1015.98 1016.30 1016.64 1016.95 1017.20 1017.35 1017.40 1017.36 1017.27 1017.16 1017.08 1017.04 1017.07 1017.15 1017.27 1017.42 1017.58 1017.74 1017.91 1018.11 1018.32 1018.57 1018.84 1019.12 1019.41 1019.68 1019.92 1020.13 1020.32 1020.50 1020.69 1020.90 1021.11 1021.34 1021.57 1021.78 1021.96
1014.65 1014.92 1015.12 1015.28 1015.45 1015.66 1015.92 1016.23 1016.56 1016.88 1017.15 1017.33 1017.42 1017.42 1017.35 1017.25 1017.14 1017.06 1017.02 1017.04 1017.10 1017.21 1017.34 1017.51 1017.70 1017.92 1018.17 1018.44 1018.72 1019.01 1019.28 1019.53 1019.76 1019.97 1020.16 1020.36 1020.57 1020.79 1021.03 1021.28 1021.52 1021.74 1021.94
1014.54 1014.80 1015.01 1015.19 1015.37 1015.58 1015.84 1016.14 1016.47 1016.79 1017.07 1017.28 1017.41 1017.44 1017.39 1017.30 1017.17 1017.06 1016.96 1016.91 1016.92 1016.97 1017.08 1017.25 1017.45 1017.70 1017.97 1018.26 1018.56 1018.84 1019.10 1019.33 1019.54 1019.73 1019.92 1020.11 1020.32 1020.56 1020.81 1021.08 1021.35 1021.60 1021.82
1014.38 1014.64 1014.87 1015.09 1015.30 1015.54 1015.80 1016.10 1016.41 1016.73 1017.00 1017.23 1017.37 1017.43 1017.41 1017.32 1017.19 1017.04 1016.90 1016.79 1016.73 1016.74 1016.82 1016.97 1017.18 1017.44 1017.73 1018.04 1018.34 1018.61 1018.86 1019.07 1019.25 1019.42 1019.58 1019.76 1019.97 1020.21 1020.47 1020.75 1021.04 1021.31 1021.57
1014.22 1014.50 1014.77 1015.04 1015.30 1015.57 1015.84 1016.13 1016.43 1016.71 1016.98 1017.19 1017.35 1017.42 1017.42 1017.34 1017.20 1017.02 1016.84 1016.68 1016.57 1016.52 1016.56 1016.68 1016.89 1017.15 1017.46 1017.77 1018.07 1018.34 1018.57 1018.76 1018.91 1019.05 1019.19 1019.35 1019.54 1019.76 1020.02 1020.30 1020.60 1020.90 1021.19
1014.12 1014.43 1014.75 1015.08 1015.40 1015.70 1015.99 1016.26 1016.52 1016.77 1017.00 1017.20 1017.34 1017.43 1017.44 1017.37 1017.23 1017.04 1016.82 1016.61 1016.45 1016.35 1016.34 1016.43 1016.61 1016.86 1017.16 1017.47 1017.76 1018.03 1018.25 1018.42 1018.56 1018.68 1018.80 1018.93 1019.09 1019.29 1019.52 1019.78 1020.07 1020.38 1020.70
1014.12 1014.46 1014.84 1015.23 1015.60 1015.93 1016.22 1016.48 1016.70 1016.90 1017.09 1017.25 1017.38 1017.47 1017.49 1017.43 1017.30 1017.10 1016.86 1016.62 1016.40 1016.26 1016.20 1016.24 1016.38 1016.60 1016.87 1017.17 1017.45 1017.71 1017.92 1018.09 1018.22 1018.33 1018.43 1018.54 1018.67 1018.83 1019.02 1019.25 1019.51 1019.80 1020.12
1014.22 1014.60 1015.04 1015.48 1015.88 1016.23 1016.52 1016.74 1016.92 1017.08 1017.22 1017.35 1017.47 1017.56 1017.59 1017.55 1017.43 1017.24 1016.99 1016.73 1016.47 1016.28 1016.16 1016.14 1016.23 1016.40 1016.63 1016.90 1017.16 1017.41 1017.62 1017.79 1017.93 1018.03 1018.13 1018.22 1018.33 1018.44 1018.58 1018.75 1018.95 1019.20 1019.49
1014.42 1014.83 1015.30 1015.77 1016.20 1016.55 1016.83 1017.02 1017.16 1017.27 1017.37 1017.48 1017.60 1017.69 1017.75 1017.74 1017.65 1017.48 1017.24 1016.96 1016.68 1016.44 1016.26 1016.18 1016.20 1016.30 1016.48 1016.69 1016.92 1017.15 1017.35 1017.53 1017.68 1017.80 1017.90 1017.98 1018.06 1018.13 1018.21 1018.30 1018.43 1018.61 1018.85
1014.67 1015.10 1015.58 1016.06 1016.49 1016.84 1017.08 1017.24 1017.35 1017.43 1017.52 1017.62 1017.75 1017.87 1017.96 1017.99 1017.95 1017.81 1017.59 1017.31 1017.01 1016.74 1016.51 1016.36 1016.30 1016.33 1016.42 1016.57 1016.75 1016.94 1017.12 1017.30 1017.45 1017.59 1017.70 1017.78 1017.84 1017.87 1017.89 1017.91 1017.95 1018.04 1018.21
1014.93 1015.36 1015.84 1016.31 1016.71 1017.03 1017.25 1017.39 1017.47 1017.54 1017.63 1017.75 1017.89 1018.05 1018.19 1018.27 1018.28 1018.18 1018.00 1017.74 1017.45 1017.15 1016.88 1016.67 1016.53 1016.47 1016.48 1016.54 1016.64 1016.76 1016.91 1017.06 1017.22 1017.36 1017.47 1017.56 1017.60 1017.61 1017.57 1017.53 1017.49 1017.50 1017.58
1015.18 1015.60 1016.05 1016.48 1016.85 1017.13 1017.32 1017.43 1017.51 1017.59 1017.69 1017.83 1018.02 1018.22 1018.41 1018.54 1018.60 1018.56 1018.42 1018.20 1017.92 1017.62 1017.33 1017.07 1016.86 1016.71 1016.61 1016.57 1016.57 1016.62 1016.70 1016.81 1016.93 1017.07 1017.18 1017.27 1017.31 1017.29 1017.22 1017.12 1017.02 1016.95 1016.96
1015.41 1015.80 1016.21 1016.58 1016.90 1017.14 1017.30 1017.40 1017.48 1017.57 1017.70 1017.87 1018.09 1018.33 1018.57 1018.75 1018.86 1018.87 1018.78 1018.60 1018.36 1018.08 1017.78 1017.49 1017.23 1017.00 1016.80 1016.65 1016.54 1016.48 1016.47 1016.51 1016.59 1016.69 1016.79 1016.87 1016.90 1016.88 1016.79 1016.66 1016.52 1016.40 1016.35
1015.62 1015.97 1016.32 1016.64 1016.90 1017.10 1017.24 1017.33 1017.42 1017.52 1017.67 1017.87 1018.12 1018.38 1018.64 1018.86 1019.00 1019.06 1019.02 1018.89 1018.70 1018.45 1018.17 1017.88 1017.58 1017.29 1017.01 1016.75 1016.53 1016.36 1016.24 1016.19 1016.20 1016.25 1016.32 1016.38 1016.41 1016.38 1016.29 1016.15 1016.00 1015.85 1015.77
1015.81 1016.12 1016.41 1016.68 1016.89 1017.05 1017.17 1017.26 1017.35 1017.47 1017.63 1017.84 1018.09 1018.36 1018.62 1018.84 1019.00 1019.08 1019.09 1019.02 1018.88 1018.69 1018.45 1018.18 1017.87 1017.55 1017.21 1016.87 1016.54 1016.26 1016.04 1015.88 1015.80 1015.78 1015.80 1015.84 1015.85 1015.83 1015.75 1015.62 1015.47 1015.33 1015.23
1015.98 1016.25 1016.50 1016.72 1016.90 1017.03 1017.14 1017.23 1017.32 1017.44 1017.60 1017.80 1018.02 1018.26 1018.50 1018.70 1018.86 1018.95 1018.99 1018.97 1018.89 1018.76 1018.58 1018.36 1018.08 1017.75 1017.38 1016.98 1016.59 1016.21 1015.89 1015.64 1015.47 1015.37 1015.33 1015.33 1015.32 1015.29 1015.22 1015.11 1014.97 1014.84 1014.76
1016.13 1016.36 1016.58 1016.77 1016.92 1017.05 1017.15 1017.23 1017.33 1017.44 1017.58 1017.75 1017.93 1018.12 1018.31 1018.47 1018.60 1018.69 1018.75 1018.76 1018.74 1018.68 1018.58 1018.41 1018.19 1017.89 1017.53 1017.11 1016.68 1016.25 1015.85 1015.52 1015.27 1015.09 1014.99 1014.93 1014.89 1014.84 1014.76 1014.66 1014.54 1014.43 1014.36
1016.22 1016.43 1016.63 1016.81 1016.96 1017.08 1017.18 1017.27 1017.36 1017.46 1017.57 1017.69 1017.82 1017.96 1018.08 1018.19 1018.28 1018.36 1018.42 1018.46 1018.49 1018.50 1018.47 1018.38 1018.21 1017.97 1017.65 1017.26 1016.82 1016.37 1015.94 1015.55 1015.24 1015.00 1014.83 1014.71 1014.62 1014.53 1014.43 1014.31 1014.19 1014.09 1014.01
1016.22 1016.43 1016.63 1016.80 1016.96 1017.09 1017.20 1017.29 1017.38 1017.46 1017.54 1017.62 1017.70 1017.77 1017.84 1017.90 1017.95 1018.00 1018.06 1018.13 1018.19 1018.25 1018.28 1018.26 1018.17 1018.00 1017.74 1017.39 1016.99 1016.56 1016.13 1015.72 1015.37 1015.08 1014.85 1014.66 1014.51 1014.36 1014.22 1014.06 1013.92 1013.79 1013.70
1016.12 1016.34 1016.54 1016.73 1016.90 1017.04 1017.16 1017.25 1017.33 1017.40 1017.46 1017.50 1017.54 1017.57 1017.59 1017.61 1017.63 1017.66 1017.71 1017.78 1017.87 1017.96 1018.04 1018.07 1018.05 1017.95 1017.76 1017.49 1017.15 1016.77 1016.37 1015.97 1015.61 1015.29 1015.01 1014.76 1014.53 1014.31 1014.09 1013.88 1013.68 1013.51 1013.39
1015.93 1016.15 1016.36 1016.56 1016.74 1016.89 1017.01 1017.11 1017.18 1017.24 1017.28 1017.31 1017.32 1017.32 1017.32 1017.32 1017.32 1017.34 1017.38 1017.45 1017.54 1017.64 1017.74 1017.81 1017.84 1017.79 1017.68 1017.48 1017.22 1016.91 1016.57 1016.21 1015.86 1015.53 1015.21 1014.91 1014.61 1014.31 1014.01 1013.72 1013.45 1013.21 1013.04
1015.65 1015.88 1016.09 1016.29 1016.47 1016.61 1016.73 1016.82 1016.88 1016.93 1016.97 1016.99 1017.00 1017.00 1016.99 1016.98 1016.98 1016.99 1017.02 1017.08 1017.16 1017.25 1017.35 1017.44 1017.49 1017.49 1017.43 1017.31 1017.13 1016.89 1016.62 1016.32 1016.01 1015.69 1015.36 1015.01 1014.66 1014.29 1013.91 1013.53 1013.18 1012.88 1012.64
1015.33 1015.55 1015.75 1015.94 1016.09 1016.21 1016.31 1016.38 1016.43 1016.47 1016.50 1016.52 1016.54 1016.55 1016.56 1016.56 1016.57 1016.57 1016.60 1016.63 1016.69 1016.76 1016.84 1016.91 1016.97 1016.99 1016.97 1016.91 1016.80 1016.65 1016.45 1016.23 1015.96 1015.67 1015.35 1014.99 1014.59 1014.17 1013.73 1013.29 1012.87 1012.50 1012.21
1014.98 1015.18 1015.36 1015.51 1015.62 1015.71 1015.76 1015.80 1015.82 1015.84 1015.87 1015.89 1015.93 1015.96 1015.98 1016.00 1016.02 1016.03 1016.04 1016.05 1016.08 1016.11 1016.16 1016.20 1016.24 1016.27 1016.28 1016.26 1016.21 1016.13 1016.01 1015.85 1015.65 1015.40 1015.11 1014.76 1014.36 1013.92 1013.45 1012.98 1012.52 1012.11 1011.77
1014.61 1014.79 1014.92 1015.02 1015.08 1015.11 1015.11 1015.10 1015.09 1015.08 1015.09 1015.12 1015.16 1015.20 1015.25 1015.28 1015.30 1015.31 1015.31 1015.31 1015.30 1015.30 1015.30 1015.31 1015.33 1015.35 1015.37 1015.38 1015.37 1015.34 1015.29 1015.20 1015.06 1014.87 1014.63 1014.32 1013.95 1013.53 1013.07 1012.60 1012.14 1011.72 1011.36
1014.22 1014.35 1014.44 1014.48 1014.48 1014.44 1014.38 1014.32 1014.27 1014.23 1014.22 1014.24 1014.28 1014.33 1014.38 1014.42 1014.44 1014.45 1014.43 1014.41 1014.37 1014.34 1014.31 1014.29 1014.29 1014.29 1014.31 1014.33 1014.35 1014.36 1014.35 1014.31 1014.23 1014.11 1013.92 1013.68 1013.37 1013.01 1012.60 1012.17 1011.74 1011.34 1011.00
Thickness
5747 5745 5743 5741 5739 5737 5736 5734 5733 5732 5730 5729 5728 5727 5726 5726 5726 5726 5726 5725 5725 5725 5725 5724 5723 5723 5722 5721 5721 5720 5719 5719 5718 5718 5717 5717 5716 5716 5715 5714 5713 5713 5712
5745 5743 5741 5739 5737 5736 5734 5733 5732 5730 5729 5727 5726 5725 5724 5724 5724 5724 5724 5723 5723 5723 5722 5722 5722 5721 5721 5720 5720 5719 5718 5717 5717 5716 5716 5715 5715 5714 5714 5713 5712 5712 5711
5743 5741 5738 5737 5736 5735 5733 5731 5730 5729 5727 5726 5724 5724 5723 5723 5722 5722 5722 5722 5721 5721 5720 5719 5720 5719 5719 5719 5718 5718 5717 5716 5716 5715 5714 5714 5713 5712 5712 5712 5711 5710 5710
5741 5739 5737 5736 5735 5734 5732 5730 5728 5725 5724 5723 5722 5722 5722 5722 5722 5721 5721 5720 5720 5719 5719 5718 5718 5718 5718 5717 5717 5716 5716 5715 5714 5713 5713 5712 5711 5711 5710 5710 5709 5709 5708
5739 5737 5735 5734 5734 5732 5730 5728 5726 5724 5721 5721 5721 5721 5721 5720 5720 5720 5720 5719 5718 5718 5717 5717 5717 5717 5716 5716 5715 5715 5714 5714 5713 5712 5711 5711 5710 5709 5709 5708 5708 5708 5707
5737 5735 5734 5733 5732 5730 5727 5726 5724 5723 5721 5720 5720 5719 5719 5720 5719 5719 5718 5718 5717 5716 5716 5715 5715 5715 5714 5714 5713 5713 5713 5712 5711 5710 5709 5709 5709 5708 5708 5707 5706 5706 5706
5735 5734 5732 5731 5730 5728 5726 5725 5723 5721 5719 5719 5716 5713 5715 5717 5717 5717 5717 5716 5715 5715 5714 5713 5713 5712 5712 5712 5711 5711 5711 5710 5709 5709 5708 5707 5707 5707 5706 5706 5706 5705 5704
5733 5732 5731 5729 5728 5726 5724 5723 5721 5718 5717 5717 5712 5706 5703 5706 5711 5714 5714 5713 5713 5713 5712 5712 5711 5710 5710 5709 5709 5709 5708 5708 5707 5707 5706 5705 5705 5705 5704 5704 5704 5704 5703
5731 5730 5729 5728 5726 5724 5721 5720 5719 5717 5713 5713 5712 5706 5699 5695 5699 5706 5709 5709 5709 5709 5709 5708 5708 5707 5707 5707 5707 5706 5706 5706 5705 5704 5703 5702 5702 5702 5702 5702 5702 5702 5702
5730 5729 5727 5726 5724 5723 5721 5720 5718 5715 5712 5708 5708 5708 5705 5702 5696 5695 5700 5703 5705 5705 5704 5705 5705 5705 5704 5704 5704 5703 5702 5703 5702 5701 5701 5700 5699 5699 5699 5700 5700 5700 5700
5728 5727 5726 5724 5722 5721 5719 5717 5715 5713 5711 5707 5705 5704 5702 5700 5697 5692 5688 5692 5696 5699 5700 5701 5701 5701 5701 5700 5700 5699 5699 5698 5698 5698 5697 5696 5696 5696 5696 5697 5697 5698 5698
5724 5724 5723 5722 5720 5719 5717 5715 5713 5711 5708 5706 5703 5701 5698 5695 5693 5690 5685 5684 5685 5691 5695 5696 5696 5696 5696 5696 5695 5695 5694 5693 5693 5693 5693 5693 5693 5693 5693 5694 5694 5695 5695
5720 5721 5721 5719 5718 5716 5715 5713 5711 5708 5706 5703 5701 5698 5696 5694 5693 5689 5685 5681 5680 5683 5687 5690 5691 5691 5691 5690 5690 5689 5688 5688 5688 5687 5688 5688 5688 5689 5689 5689 5690 5691 5692
5720 5720 5719 5718 5716 5715 5713 5711 5708 5706 5704 5701 5699 5696 5694 5692 5691 5688 5684 5679 5675 5674 5677 5680 5684 5685 5685 5684 5684 5683 5683 5682 5682 5682 5682 5682 5683 5683 5684 5685 5685 5686 5688
5720 5719 5717 5716 5714 5712 5710 5708 5705 5703 5701 5698 5696 5694 5691 5689 5688 5686 5683 5680 5673 5667 5666 5672 5675 5679 5679 5679 5678 5677 5677 5676 5676 5676 5676 5677 5677 5678 5679 5680 5681 5681 5683
5719 5717 5715 5713 5711 5709 5707 5705 5702 5700 5697 5695 5693 5691 5688 5686 5685 5683 5680 5677 5674 5668 5663 5666 5669 5672 5674 5674 5673 5672 5672 5671 5671 5671 5671 5672 5672 5673 5674 5674 5675 5676 5677
5717 5715 5713 5711 5709 5707 5704 5702 5699 5697 5694 5692 5690 5688 5685 5683 5681 5679 5677 5674 5670 5666 5661 5662 5665 5667 5668 5668 5668 5668 5667 5666 5666 5666 5667 5667 5667 5668 5668 5669 5670 5670 5671
5716 5714 5711 5709 5707 5704 5702 5699 5696 5694 5691 5688 5686 5684 5682 5680 5677 5675 5672 5670 5667 5664 5660 5658 5659 5660 5662 5662 5662 5662 5662 5662 5661 5661 5661 5662 5662 5662 5663 5663 5664 5664 5665
5713 5712 5709 5706 5704 5702 5699 5697 5694 5691 5689 5686 5684 5681 5678 5676 5673 5671 5668 5666 5664 5662 5658 5654 5653 5654 5655 5656 5655 5655 5656 5655 5655 5655 5655 5656 5656 5656 5656 5657 5657 5658 5659
5711 5709 5707 5705 5702 5700 5697 5695 5692 5689 5686 5684 5681 5679 5676 5673 5670 5668 5665 5663 5660 5657 5654 5650 5648 5647 5647 5648 5647 5645 5645 5646 5647 5648 5648 5649 5649 5649 5650 5650 5651 5652 5653
5710 5707 5704 5702 5700 5697 5695 5692 5689 5686 5683 5680 5678 5676 5674 5672 5670 5667 5664 5660 5656 5652 5649 5645 5643 5641 5640 5639 5639 5639 5637 5637 5639 5640 5640 5641 5641 5642 5642 5644 5645 5646 5647
5707 5704 5702 5699 5697 5696 5694 5691 5687 5683 5679 5676 5674 5672 5671 5669 5668 5665 5663 5660 5656 5650 5645 5641 5639 5636 5636 5635 5634 5633 5630 5628 5628 5632 5631 5632 5633 5633 5635 5636 5638 5639 5640
5704 5701 5699 5696 5694 5692 5691 5688 5684 5680 5676 5673 5671 5668 5667 5667 5665 5662 5660 5657 5654 5651 5647 5642 5638 5636 5634 5633 5630 5627 5625 5623 5623 5625 5622 5624 5626 5626 5629 5630 5631 5632 5633
5701 5698 5696 5693 5690 5689 5687 5684 5681 5676 5673 5670 5668 5666 5663 5662 5661 5658 5655 5652 5650 5648 5645 5642 5638 5637 5635 5633 5628 5625 5622 5620 5620 5619 5616 5614 5619 5620 5624 5624 5625 5625 5626
5699 5696 5693 5690 5687 5685 5684 5681 5677 5672 5669 5667 5666 5664 5661 5659 5658 5655 5650 5647 5645 5644 5644 5641 5638 5636 5633 5630 5625 5619 5615 5610 5611 5614 5611 5608 5612 5613 5615 5616 5618 5619 5619
5697 5694 5691 5688 5685 5683 5681 5678 5674 5669 5664 5663 5662 5660 5659 5656 5654 5651 5645 5642 5639 5640 5639 5637 5634 5631 5628 5625 5622 5616 5612 5607 5605 5605 5607 5602 5603 5602 5603 5608 5609 5610 5610